,,Stat6,,Stat2,,Stat8,,Stat9,,Stat10,,Wind1,,Wind1,
time,status,PA1M_AVG,status,PR1M_SUM,status,RH1M_AVG,status,SR1M_AVG,status,TA1M_AVG,status,W1dAve1m,status,W1sAve1m,
2007-06-17, 00:00:00,VALID,915.16,VALID,0,VALID,100,VALID,0.0169808,VALID,20.4656,VALID,99,VALID,0.174609,
2007-06-17, 00:01:00,VALID,915.159,VALID,0,VALID,100,VALID,0,VALID,20.4694,VALID,99,VALID,0.205903,
2007-06-17, 00:02:00,VALID,915.165,VALID,0,VALID,100,VALID,0.0169808,VALID,20.4756,VALID,99,VALID,0.250694,
2007-06-17, 00:03:00,VALID,915.156,VALID,0,VALID,100,VALID,0.0169808,VALID,20.4816,VALID,98,VALID,0.207317,
2007-06-17, 00:04:00,VALID,915.159,VALID,0,VALID,100,VALID,0,VALID,20.4913,VALID,94,VALID,0.403161,
2007-06-17, 00:05:00,VALID,915.162,VALID,0,VALID,100,VALID,0,VALID,20.4978,VALID,73,VALID,0.406977,
2007-06-17, 00:06:00,VALID,915.143,VALID,0,VALID,100,VALID,0.0169808,VALID,20.4851,VALID,69,VALID,0.245384,
2007-06-17, 00:07:00,VALID,915.137,VALID,0,VALID,100,VALID,0.0169808,VALID,20.4686,VALID,49,VALID,0.544085,
2007-06-17, 00:08:00,VALID,915.14,VALID,0,VALID,100,VALID,0,VALID,20.4164,VALID,37,VALID,0.499814,
2007-06-17, 00:09:00,VALID,915.122,VALID,0,VALID,100,VALID,0.0339617,VALID,20.4229,VALID,37,VALID,0.358854,
2007-06-17, 00:10:00,VALID,915.098,VALID,0,VALID,100,VALID,0.0509425,VALID,20.4134,VALID,37,VALID,0.436899,
2007-06-17, 00:11:00,VALID,915.078,VALID,0,VALID,100,VALID,0.0169808,VALID,20.3745,VALID,37,VALID,0.241997,
2007-06-17, 00:12:00,VALID,915.079,VALID,0,VALID,100,VALID,0.0509425,VALID,20.3842,VALID,37,VALID,0.201172,
2007-06-17, 00:13:00,VALID,915.079,VALID,0.2,VALID,100,VALID,0,VALID,20.3648,VALID,37,VALID,0.0198317,
2007-06-17, 00:14:00,VALID,915.072,VALID,0,VALID,100,VALID,-0.0169808,VALID,20.369,VALID,37,VALID,0.0653045,
2007-06-17, 00:15:00,VALID,915.051,VALID,0,VALID,100,VALID,-0.0679233,VALID,20.3793,VALID,37,VALID,0.0212054,
2007-06-17, 00:16:00,VALID,915.038,VALID,0,VALID,100,VALID,-0.0849042,VALID,20.3953,VALID,37,VALID,0.377344,
2007-06-17, 00:17:00,VALID,915.016,VALID,0,VALID,100,VALID,-0.101885,VALID,20.3798,VALID,37,VALID,0.225446,
2007-06-17, 00:18:00,VALID,915.005,VALID,0,VALID,100,VALID,-0.0849042,VALID,20.3563,VALID,37,VALID,0.101944,
2007-06-17, 00:19:00,VALID,915.008,VALID,0,VALID,100,VALID,-0.101885,VALID,20.3568,VALID,37,VALID,0.442116,
2007-06-17, 00:20:00,VALID,914.985,VALID,0,VALID,100,VALID,-0.101885,VALID,20.3668,VALID,37,VALID,0.471875,
2007-06-17, 00:21:00,VALID,914.982,VALID,0,VALID,100,VALID,-0.0849042,VALID,20.3663,VALID,37,VALID,0.353693,
2007-06-17, 00:22:00,VALID,914.961,VALID,0,VALID,100,VALID,-0.101885,VALID,20.3468,VALID,37,VALID,0.331854,
2007-06-17, 00:23:00,VALID,914.957,VALID,0,VALID,100,VALID,-0.0849042,VALID,20.3271,VALID,37,VALID,0.45805,
2007-06-17, 00:24:00,VALID,914.95,VALID,0,VALID,100,VALID,-0.101885,VALID,20.3498,VALID,43,VALID,0.605655,
2007-06-17, 00:25:00,VALID,914.949,VALID,0,VALID,100,VALID,-0.0849042,VALID,20.3406,VALID,58,VALID,0.677734,
2007-06-17, 00:26:00,VALID,914.944,VALID,0,VALID,100,VALID,-0.101885,VALID,20.3466,VALID,60,VALID,0.681021,
2007-06-17, 00:27:00,VALID,914.952,VALID,0,VALID,100,VALID,-0.0509425,VALID,20.3271,VALID,62,VALID,0.539993,
2007-06-17, 00:28:00,VALID,914.932,VALID,0,VALID,100,VALID,-0.0679233,VALID,20.3271,VALID,63,VALID,0.596168,
2007-06-17, 00:29:00,VALID,914.918,VALID,0,VALID,100,VALID,-0.0339617,VALID,20.3361,VALID,39,VALID,0.528963,
2007-06-17, 00:30:00,VALID,914.918,VALID,0,VALID,100,VALID,0.0169808,VALID,20.3483,VALID,26,VALID,0.634487,
2007-06-17, 00:31:00,VALID,914.904,VALID,0,VALID,100,VALID,0.0509425,VALID,20.342,VALID,38,VALID,0.474254,
2007-06-17, 00:32:00,VALID,914.884,VALID,0,VALID,100,VALID,0.0509425,VALID,20.3453,VALID,44,VALID,0.478198,
2007-06-17, 00:33:00,VALID,914.873,VALID,0,VALID,100,VALID,0,VALID,20.3453,VALID,30,VALID,0.671693,
2007-06-17, 00:34:00,VALID,914.848,VALID,0,VALID,100,VALID,0,VALID,20.3291,VALID,24,VALID,0.515092,
2007-06-17, 00:35:00,VALID,914.832,VALID,0,VALID,100,VALID,0,VALID,20.3396,VALID,11,VALID,0.63157,
2007-06-17, 00:36:00,VALID,914.836,VALID,0,VALID,100,VALID,0.0169808,VALID,20.3096,VALID,13,VALID,0.731286,
2007-06-17, 00:37:00,VALID,914.814,VALID,0,VALID,100,VALID,0,VALID,20.3001,VALID,19,VALID,0.8125,
2007-06-17, 00:38:00,VALID,914.81,VALID,0,VALID,100,VALID,0.0339617,VALID,20.2999,VALID,20,VALID,0.852493,
2007-06-17, 00:39:00,VALID,914.799,VALID,0,VALID,100,VALID,0.0169808,VALID,20.2909,VALID,21,VALID,0.907552,
2007-06-17, 00:40:00,VALID,914.792,VALID,0.2,VALID,100,VALID,0,VALID,20.2966,VALID,26,VALID,0.866235,
2007-06-17, 00:41:00,VALID,914.772,VALID,0,VALID,100,VALID,0.0509425,VALID,20.2901,VALID,28,VALID,0.87407,
2007-06-17, 00:42:00,VALID,914.759,VALID,0,VALID,100,VALID,0,VALID,20.2771,VALID,28,VALID,0.731213,
2007-06-17, 00:43:00,VALID,914.754,VALID,0,VALID,100,VALID,0.0339617,VALID,20.2669,VALID,36,VALID,0.557958,
2007-06-17, 00:44:00,VALID,914.737,VALID,0,VALID,100,VALID,-0.0509425,VALID,20.2679,VALID,37,VALID,0.525484,
2007-06-17, 00:45:00,VALID,914.711,VALID,0,VALID,100,VALID,-0.101885,VALID,20.2722,VALID,37,VALID,0.359012,
2007-06-17, 00:46:00,VALID,914.709,VALID,0,VALID,100,VALID,-0.0849042,VALID,20.2849,VALID,37,VALID,0.178977,
2007-06-17, 00:47:00,VALID,914.693,VALID,0,VALID,100,VALID,-0.0849042,VALID,20.3009,VALID,37,VALID,0.367006,
2007-06-17, 00:48:00,VALID,914.689,VALID,0,VALID,100,VALID,-0.0509425,VALID,20.3174,VALID,37,VALID,0.418713,
2007-06-17, 00:49:00,VALID,914.667,VALID,0,VALID,100,VALID,-0.0849042,VALID,20.3241,VALID,37,VALID,0.499256,
2007-06-17, 00:50:00,VALID,914.671,VALID,0,VALID,100,VALID,-0.0679233,VALID,20.3274,VALID,35,VALID,0.602325,
2007-06-17, 00:51:00,VALID,914.671,VALID,0,VALID,100,VALID,-0.0849042,VALID,20.3274,VALID,28,VALID,0.599382,
2007-06-17, 00:52:00,VALID,914.691,VALID,0,VALID,100,VALID,-0.101885,VALID,20.3111,VALID,28,VALID,0.765811,
2007-06-17, 00:53:00,VALID,914.686,VALID,0,VALID,100,VALID,-0.0509425,VALID,20.2982,VALID,26,VALID,0.790698,
2007-06-17, 00:54:00,VALID,914.688,VALID,0,VALID,100,VALID,-0.118866,VALID,20.3044,VALID,24,VALID,0.786395,
2007-06-17, 00:55:00,VALID,914.68,VALID,0,VALID,100,VALID,-0.0849042,VALID,20.2817,VALID,16,VALID,0.772656,
2007-06-17, 00:56:00,VALID,914.678,VALID,0,VALID,100,VALID,-0.101885,VALID,20.2397,VALID,17,VALID,0.924924,
2007-06-17, 00:57:00,VALID,914.689,VALID,0,VALID,100,VALID,-0.101885,VALID,20.1973,VALID,24,VALID,0.932413,
2007-06-17, 00:58:00,VALID,914.672,VALID,0,VALID,100,VALID,-0.0679233,VALID,20.2103,VALID,22,VALID,0.815589,
2007-06-17, 00:59:00,VALID,914.668,VALID,0,VALID,100,VALID,0,VALID,20.1905,VALID,23,VALID,0.847202,
2007-06-17, 01:00:00,VALID,914.653,VALID,0,VALID,100,VALID,-0.0339617,VALID,20.1876,VALID,33,VALID,0.430575,
2007-06-17, 01:01:00,VALID,914.644,VALID,0,VALID,100,VALID,-0.0679233,VALID,20.1776,VALID,356,VALID,0.801339,
2007-06-17, 01:02:00,VALID,914.635,VALID,0,VALID,100,VALID,-0.0849042,VALID,20.1486,VALID,18,VALID,0.803125,
2007-06-17, 01:03:00,VALID,914.626,VALID,0,VALID,100,VALID,-0.0679233,VALID,20.1451,VALID,28,VALID,0.535528,
2007-06-17, 01:04:00,VALID,914.624,VALID,0,VALID,100,VALID,-0.0339617,VALID,20.1321,VALID,25,VALID,0.22311,
2007-06-17, 01:05:00,VALID,914.606,VALID,0,VALID,100,VALID,-0.101885,VALID,20.1321,VALID,24,VALID,0.256445,
2007-06-17, 01:06:00,VALID,914.594,VALID,0,VALID,100,VALID,-0.0679233,VALID,20.1454,VALID,24,VALID,0.0973011,
2007-06-17, 01:07:00,VALID,914.596,VALID,0,VALID,100,VALID,-0.0849042,VALID,20.1551,VALID,24,VALID,0.307405,
2007-06-17, 01:08:00,VALID,914.591,VALID,0,VALID,100,VALID,-0.0849042,VALID,20.1911,VALID,24,VALID,0.192491,
2007-06-17, 01:09:00,VALID,914.573,VALID,0,VALID,100,VALID,-0.101885,VALID,20.207,VALID,24,VALID,0.0670421,
2007-06-17, 01:10:00,VALID,914.57,VALID,0,VALID,100,VALID,-0.0679233,VALID,20.2035,VALID,24,VALID,0.295945,
2007-06-17, 01:11:00,VALID,914.562,VALID,0,VALID,100,VALID,-0.0339617,VALID,20.2135,VALID,24,VALID,0.0920759,
2007-06-17, 01:12:00,VALID,914.541,VALID,0,VALID,100,VALID,-0.0509425,VALID,20.2165,VALID,24,VALID,0.000181686,
2007-06-17, 01:13:00,VALID,914.537,VALID,0,VALID,100,VALID,-0.101885,VALID,20.223,VALID,24,VALID,0.1982,
2007-06-17, 01:14:00,VALID,914.535,VALID,0,VALID,100,VALID,-0.0339617,VALID,20.2327,VALID,24,VALID,0.299782,
2007-06-17, 01:15:00,VALID,914.523,VALID,0,VALID,100,VALID,-0.0679233,VALID,20.2622,VALID,24,VALID,0.181996,
2007-06-17, 01:16:00,VALID,914.518,VALID,0,VALID,100,VALID,-0.0849042,VALID,20.2682,VALID,24,VALID,0.181974,
2007-06-17, 01:17:00,VALID,914.514,VALID,0,VALID,100,VALID,-0.0849042,VALID,20.256,VALID,24,VALID,0.0442708,
2007-06-17, 01:18:00,VALID,914.504,VALID,0,VALID,100,VALID,-0.0679233,VALID,20.2165,VALID,24,VALID,0.0225694,
2007-06-17, 01:19:00,VALID,914.502,VALID,0.2,VALID,100,VALID,-0.0509425,VALID,20.2362,VALID,24,VALID,0.0226935,
2007-06-17, 01:20:00,VALID,914.496,VALID,0,VALID,100,VALID,-0.101885,VALID,20.2397,VALID,24,VALID,0,
2007-06-17, 01:21:00,VALID,914.5,VALID,0,VALID,100,VALID,-0.101885,VALID,20.2427,VALID,24,VALID,0,
2007-06-17, 01:22:00,VALID,914.489,VALID,0,VALID,100,VALID,-0.101885,VALID,20.2362,VALID,24,VALID,0,
2007-06-17, 01:23:00,VALID,914.479,VALID,0,VALID,100,VALID,-0.0509425,VALID,20.2427,VALID,24,VALID,0,
2007-06-17, 01:24:00,VALID,914.463,VALID,0,VALID,100,VALID,-0.0849042,VALID,20.2427,VALID,24,VALID,0,
2007-06-17, 01:25:00,VALID,914.459,VALID,0,VALID,100,VALID,-0.0339617,VALID,20.2492,VALID,24,VALID,0,
2007-06-17, 01:26:00,VALID,914.454,VALID,0,VALID,100,VALID,-0.0849042,VALID,20.2587,VALID,24,VALID,0,
2007-06-17, 01:27:00,VALID,914.453,VALID,0,VALID,100,VALID,-0.101885,VALID,20.2817,VALID,24,VALID,0,
2007-06-17, 01:28:00,VALID,914.455,VALID,0,VALID,100,VALID,-0.0849042,VALID,20.2817,VALID,24,VALID,0.105755,
2007-06-17, 01:29:00,VALID,914.44,VALID,0,VALID,100,VALID,-0.0169808,VALID,20.2876,VALID,24,VALID,0.220749,
2007-06-17, 01:30:00,VALID,914.438,VALID,0,VALID,100,VALID,0.0339617,VALID,20.2896,VALID,24,VALID,0.0728516,
2007-06-17, 01:31:00,VALID,914.429,VALID,0,VALID,100,VALID,0.0339617,VALID,20.3026,VALID,24,VALID,0.0318216,
2007-06-17, 01:32:00,VALID,914.409,VALID,0,VALID,100,VALID,0,VALID,20.3096,VALID,24,VALID,0.00225694,
2007-06-17, 01:33:00,VALID,914.412,VALID,0,VALID,100,VALID,0.0169808,VALID,20.3031,VALID,24,VALID,0,
2007-06-17, 01:34:00,VALID,914.405,VALID,0,VALID,100,VALID,0,VALID,20.2799,VALID,24,VALID,0,
2007-06-17, 01:35:00,VALID,914.42,VALID,0,VALID,100,VALID,0.0679233,VALID,20.2574,VALID,24,VALID,0,
2007-06-17, 01:36:00,VALID,914.422,VALID,0,VALID,100,VALID,0.0509425,VALID,20.2412,VALID,24,VALID,0,
2007-06-17, 01:37:00,VALID,914.42,VALID,0,VALID,100,VALID,0.0339617,VALID,20.2444,VALID,24,VALID,0,
2007-06-17, 01:38:00,VALID,914.419,VALID,0,VALID,100,VALID,0.0339617,VALID,20.2639,VALID,24,VALID,0.217949,
2007-06-17, 01:39:00,VALID,914.406,VALID,0,VALID,100,VALID,0,VALID,20.2637,VALID,24,VALID,0.483631,
2007-06-17, 01:40:00,VALID,914.398,VALID,0,VALID,100,VALID,0,VALID,20.2831,VALID,24,VALID,0.463034,
2007-06-17, 01:41:00,VALID,914.376,VALID,0,VALID,100,VALID,0.0509425,VALID,20.3223,VALID,24,VALID,0.212612,
2007-06-17, 01:42:00,VALID,914.381,VALID,0,VALID,100,VALID,0.0849042,VALID,20.3256,VALID,24,VALID,0.218928,
2007-06-17, 01:43:00,VALID,914.373,VALID,0,VALID,100,VALID,0.0509425,VALID,20.3188,VALID,24,VALID,0.109189,
2007-06-17, 01:44:00,VALID,914.366,VALID,0,VALID,100,VALID,0,VALID,20.3161,VALID,24,VALID,0.526736,
2007-06-17, 01:45:00,VALID,914.367,VALID,0,VALID,100,VALID,-0.0679233,VALID,20.3104,VALID,26,VALID,0.613653,
2007-06-17, 01:46:00,VALID,914.351,VALID,0,VALID,100,VALID,-0.0679233,VALID,20.3109,VALID,32,VALID,0.630273,
2007-06-17, 01:47:00,VALID,914.329,VALID,0.2,VALID,100,VALID,-0.0679233,VALID,20.3206,VALID,42,VALID,0.602095,
2007-06-17, 01:48:00,VALID,914.331,VALID,0,VALID,100,VALID,-0.0509425,VALID,20.3201,VALID,42,VALID,0.328125,
2007-06-17, 01:49:00,VALID,914.304,VALID,0,VALID,100,VALID,-0.0849042,VALID,20.3368,VALID,38,VALID,0.618862,
2007-06-17, 01:50:00,VALID,914.299,VALID,0,VALID,100,VALID,-0.101885,VALID,20.2849,VALID,36,VALID,0.672433,
2007-06-17, 01:51:00,VALID,914.286,VALID,0,VALID,100,VALID,-0.0509425,VALID,20.2395,VALID,33,VALID,0.601207,
2007-06-17, 01:52:00,VALID,914.275,VALID,0,VALID,100,VALID,-0.0679233,VALID,20.2103,VALID,15,VALID,0.616257,
2007-06-17, 01:53:00,VALID,914.268,VALID,0.2,VALID,100,VALID,-0.0849042,VALID,20.1613,VALID,7,VALID,0.552083,
2007-06-17, 01:54:00,VALID,914.251,VALID,0,VALID,100,VALID,-0.0509425,VALID,20.1613,VALID,7,VALID,0.514803,
2007-06-17, 01:55:00,VALID,914.237,VALID,0,VALID,100,VALID,-0.0679233,VALID,20.1681,VALID,12,VALID,0.353051,
2007-06-17, 01:56:00,VALID,914.24,VALID,0,VALID,100,VALID,-0.0679233,VALID,20.1586,VALID,12,VALID,0.523619,
2007-06-17, 01:57:00,VALID,914.231,VALID,0,VALID,100,VALID,-0.0849042,VALID,20.1551,VALID,19,VALID,0.567454,
2007-06-17, 01:58:00,VALID,914.224,VALID,0,VALID,100,VALID,-0.0679233,VALID,20.1613,VALID,21,VALID,0.339208,
2007-06-17, 01:59:00,VALID,914.207,VALID,0,VALID,100,VALID,-4.62593e-018,VALID,20.1576,VALID,21,VALID,0.579883,
2007-06-17, 02:00:00,VALID,914.193,VALID,0,VALID,100,VALID,0.0849042,VALID,20.1438,VALID,21,VALID,0.501817,
2007-06-17, 02:01:00,VALID,914.174,VALID,0,VALID,100,VALID,0.0679233,VALID,20.1244,VALID,31,VALID,0.417763,
2007-06-17, 02:02:00,VALID,914.165,VALID,0,VALID,100,VALID,0.0339617,VALID,20.1276,VALID,59,VALID,0.505814,
2007-06-17, 02:03:00,VALID,914.144,VALID,0,VALID,100,VALID,0.101885,VALID,20.1214,VALID,51,VALID,0.515439,
2007-06-17, 02:04:00,VALID,914.141,VALID,0,VALID,100,VALID,0.101885,VALID,20.1111,VALID,43,VALID,0.452939,
2007-06-17, 02:05:00,VALID,914.135,VALID,0,VALID,100,VALID,0.0849042,VALID,20.1244,VALID,31,VALID,0.446911,
2007-06-17, 02:06:00,VALID,914.135,VALID,0.2,VALID,100,VALID,0.0679233,VALID,20.1144,VALID,24,VALID,0.460565,
2007-06-17, 02:07:00,VALID,914.117,VALID,0,VALID,100,VALID,0.0509425,VALID,20.1116,VALID,15,VALID,0.441778,
2007-06-17, 02:08:00,VALID,914.117,VALID,0,VALID,100,VALID,0.0509425,VALID,20.1014,VALID,15,VALID,0.338956,
2007-06-17, 02:09:00,VALID,914.097,VALID,0,VALID,100,VALID,0.0849042,VALID,20.1209,VALID,15,VALID,0.0653409,
2007-06-17, 02:10:00,VALID,914.069,VALID,0,VALID,100,VALID,0.0849042,VALID,20.1244,VALID,15,VALID,0.0737645,
2007-06-17, 02:11:00,VALID,914.045,VALID,0,VALID,100,VALID,0.0849042,VALID,20.1246,VALID,15,VALID,0.302641,
2007-06-17, 02:12:00,VALID,914.017,VALID,0,VALID,100,VALID,0.101885,VALID,20.0952,VALID,30,VALID,0.342076,
2007-06-17, 02:13:00,VALID,913.999,VALID,0,VALID,100,VALID,0.0509425,VALID,20.076,VALID,47,VALID,0.299423,
2007-06-17, 02:14:00,VALID,913.995,VALID,0,VALID,100,VALID,0.0509425,VALID,20.0567,VALID,48,VALID,0.317406,
2007-06-17, 02:15:00,VALID,913.97,VALID,0,VALID,100,VALID,0.0169808,VALID,20.048,VALID,63,VALID,0.481326,
2007-06-17, 02:16:00,VALID,913.961,VALID,0,VALID,100,VALID,-0.0169808,VALID,20.0253,VALID,83,VALID,0.527166,
2007-06-17, 02:17:00,VALID,913.936,VALID,0,VALID,100,VALID,-0.0339617,VALID,20.0056,VALID,83,VALID,0.309896,
2007-06-17, 02:18:00,VALID,913.925,VALID,0,VALID,100,VALID,-0.0339617,VALID,20.0056,VALID,84,VALID,0.402593,
2007-06-17, 02:19:00,VALID,913.908,VALID,0,VALID,100,VALID,0,VALID,20.0083,VALID,85,VALID,0.12832,
2007-06-17, 02:20:00,VALID,913.899,VALID,0,VALID,100,VALID,-0.0169808,VALID,20.0121,VALID,85,VALID,0.00327035,
2007-06-17, 02:21:00,VALID,913.902,VALID,0,VALID,100,VALID,0,VALID,20.0186,VALID,85,VALID,0,
2007-06-17, 02:22:00,VALID,913.911,VALID,0,VALID,100,VALID,0.0169808,VALID,20.0283,VALID,85,VALID,0,
2007-06-17, 02:23:00,VALID,913.919,VALID,0,VALID,100,VALID,0,VALID,20.0413,VALID,85,VALID,0,
2007-06-17, 02:24:00,VALID,913.917,VALID,0,VALID,100,VALID,0,VALID,20.038,VALID,85,VALID,0.129002,
2007-06-17, 02:25:00,VALID,913.93,VALID,0,VALID,100,VALID,0,VALID,20.0443,VALID,85,VALID,0.228924,
2007-06-17, 02:26:00,VALID,913.939,VALID,0,VALID,100,VALID,-0.0169808,VALID,20.0448,VALID,85,VALID,0.0857599,
2007-06-17, 02:27:00,VALID,913.944,VALID,0,VALID,100,VALID,-0.0339617,VALID,20.048,VALID,85,VALID,0,
2007-06-17, 02:28:00,VALID,913.95,VALID,0,VALID,100,VALID,-0.0169808,VALID,20.0443,VALID,85,VALID,0,
2007-06-17, 02:29:00,VALID,913.946,VALID,0.2,VALID,100,VALID,-0.0509425,VALID,20.064,VALID,85,VALID,0,
2007-06-17, 02:30:00,VALID,913.946,VALID,0,VALID,100,VALID,0,VALID,20.077,VALID,85,VALID,0.0134943,
2007-06-17, 02:31:00,VALID,913.944,VALID,0,VALID,100,VALID,0,VALID,20.1027,VALID,85,VALID,0.100991,
2007-06-17, 02:32:00,VALID,913.937,VALID,0,VALID,100,VALID,-0.0339617,VALID,20.0992,VALID,94,VALID,0.247514,
2007-06-17, 02:33:00,VALID,913.923,VALID,0,VALID,100,VALID,0.0169808,VALID,20.0929,VALID,96,VALID,0.110403,
2007-06-17, 02:34:00,VALID,913.912,VALID,0,VALID,100,VALID,0,VALID,20.1097,VALID,96,VALID,0.278942,
2007-06-17, 02:35:00,VALID,913.897,VALID,0,VALID,100,VALID,-0.0169808,VALID,20.1094,VALID,96,VALID,0.0761218,
2007-06-17, 02:36:00,VALID,913.883,VALID,0,VALID,100,VALID,0,VALID,20.1064,VALID,96,VALID,0,
2007-06-17, 02:37:00,VALID,913.86,VALID,0,VALID,100,VALID,0,VALID,20.0899,VALID,96,VALID,0.00130208,
2007-06-17, 02:38:00,VALID,913.84,VALID,0,VALID,100,VALID,0,VALID,20.0802,VALID,96,VALID,0,
2007-06-17, 02:39:00,VALID,913.818,VALID,0,VALID,100,VALID,0,VALID,20.064,VALID,96,VALID,0.0176711,
2007-06-17, 02:40:00,VALID,913.811,VALID,0,VALID,100,VALID,-0.0169808,VALID,20.0672,VALID,96,VALID,0,
2007-06-17, 02:41:00,VALID,913.798,VALID,0,VALID,100,VALID,-0.0169808,VALID,20.0772,VALID,96,VALID,0.0775799,
2007-06-17, 02:42:00,VALID,913.794,VALID,0,VALID,100,VALID,0,VALID,20.0672,VALID,96,VALID,0.181771,
2007-06-17, 02:43:00,VALID,913.78,VALID,0,VALID,100,VALID,0,VALID,20.0577,VALID,96,VALID,0.0581174,
2007-06-17, 02:44:00,VALID,913.785,VALID,0,VALID,100,VALID,0.0339617,VALID,20.0513,VALID,96,VALID,0,
2007-06-17, 02:45:00,VALID,913.785,VALID,0,VALID,100,VALID,0,VALID,20.061,VALID,96,VALID,0,
2007-06-17, 02:46:00,VALID,913.786,VALID,0,VALID,100,VALID,0,VALID,20.0705,VALID,96,VALID,0.189063,
2007-06-17, 02:47:00,VALID,913.766,VALID,0,VALID,100,VALID,0,VALID,20.0902,VALID,96,VALID,0.113758,
2007-06-17, 02:48:00,VALID,913.768,VALID,0.2,VALID,100,VALID,0,VALID,20.0967,VALID,96,VALID,0.00571646,
2007-06-17, 02:49:00,VALID,913.769,VALID,0,VALID,100,VALID,-0.0169808,VALID,20.1062,VALID,96,VALID,0,
2007-06-17, 02:50:00,VALID,913.761,VALID,0,VALID,100,VALID,-0.0169808,VALID,20.1032,VALID,96,VALID,0,
2007-06-17, 02:51:00,VALID,913.752,VALID,0,VALID,100,VALID,-0.0339617,VALID,20.1132,VALID,96,VALID,0,
2007-06-17, 02:52:00,VALID,913.748,VALID,0,VALID,100,VALID,0,VALID,20.1099,VALID,96,VALID,0.0120046,
2007-06-17, 02:53:00,VALID,913.742,VALID,0,VALID,100,VALID,0,VALID,20.1064,VALID,96,VALID,0,
2007-06-17, 02:54:00,VALID,913.752,VALID,0,VALID,100,VALID,-0.0169808,VALID,20.1032,VALID,96,VALID,0.0012718,
2007-06-17, 02:55:00,VALID,913.735,VALID,0,VALID,100,VALID,-0.0169808,VALID,20.1097,VALID,96,VALID,0.0394259,
2007-06-17, 02:56:00,VALID,913.743,VALID,0,VALID,100,VALID,0,VALID,20.1067,VALID,96,VALID,0.0604539,
2007-06-17, 02:57:00,VALID,913.733,VALID,0,VALID,100,VALID,0,VALID,20.0934,VALID,96,VALID,0.000887784,
2007-06-17, 02:58:00,VALID,913.731,VALID,0,VALID,100,VALID,0,VALID,20.0864,VALID,96,VALID,0.00408381,
2007-06-17, 02:59:00,VALID,913.738,VALID,0,VALID,100,VALID,-0.0169808,VALID,20.0902,VALID,96,VALID,0.00372869,
2007-06-17, 03:00:00,VALID,913.724,VALID,0,VALID,100,VALID,-0.0339617,VALID,20.0929,VALID,96,VALID,0,
2007-06-17, 03:01:00,VALID,913.736,VALID,0,VALID,100,VALID,-0.0339617,VALID,20.0929,VALID,96,VALID,0.0788517,
2007-06-17, 03:02:00,VALID,913.74,VALID,0,VALID,100,VALID,-0.0509425,VALID,20.0672,VALID,96,VALID,0.0629883,
2007-06-17, 03:03:00,VALID,913.733,VALID,0,VALID,100,VALID,-0.0679233,VALID,20.048,VALID,96,VALID,0,
2007-06-17, 03:04:00,VALID,913.727,VALID,0,VALID,100,VALID,-0.0849042,VALID,20.0315,VALID,96,VALID,0,
2007-06-17, 03:05:00,VALID,913.737,VALID,0,VALID,100,VALID,-0.0339617,VALID,20.0383,VALID,96,VALID,0,
2007-06-17, 03:06:00,VALID,913.72,VALID,0,VALID,100,VALID,-0.0679233,VALID,20.0283,VALID,96,VALID,0,
2007-06-17, 03:07:00,VALID,913.709,VALID,0,VALID,100,VALID,-0.0679233,VALID,20.038,VALID,96,VALID,0,
2007-06-17, 03:08:00,VALID,913.718,VALID,0,VALID,100,VALID,-0.0339617,VALID,20.051,VALID,96,VALID,0,
2007-06-17, 03:09:00,VALID,913.713,VALID,0.2,VALID,100,VALID,-0.0509425,VALID,20.0575,VALID,96,VALID,0,
2007-06-17, 03:10:00,VALID,913.71,VALID,0,VALID,100,VALID,-0.0679233,VALID,20.0575,VALID,96,VALID,0,
2007-06-17, 03:11:00,VALID,913.705,VALID,0,VALID,100,VALID,-0.0339617,VALID,20.0737,VALID,95,VALID,0.0454215,
2007-06-17, 03:12:00,VALID,913.705,VALID,0,VALID,100,VALID,-0.0169808,VALID,20.067,VALID,79,VALID,0.346591,
2007-06-17, 03:13:00,VALID,913.681,VALID,0,VALID,100,VALID,-0.0509425,VALID,20.0575,VALID,79,VALID,0.00090843,
2007-06-17, 03:14:00,VALID,913.686,VALID,0,VALID,100,VALID,0.0169808,VALID,20.0595,VALID,79,VALID,0.0559028,
2007-06-17, 03:15:00,VALID,913.683,VALID,0,VALID,100,VALID,0.0679233,VALID,20.0627,VALID,79,VALID,0.201562,
2007-06-17, 03:16:00,VALID,913.66,VALID,0,VALID,100,VALID,0.0679233,VALID,20.0595,VALID,79,VALID,0.026456,
2007-06-17, 03:17:00,VALID,913.649,VALID,0,VALID,100,VALID,0.0509425,VALID,20.043,VALID,79,VALID,0,
2007-06-17, 03:18:00,VALID,913.65,VALID,0,VALID,100,VALID,0.0679233,VALID,20.0525,VALID,79,VALID,0,
2007-06-17, 03:19:00,VALID,913.656,VALID,0,VALID,100,VALID,0.0339617,VALID,20.0754,VALID,79,VALID,0.270241,
2007-06-17, 03:20:00,VALID,913.652,VALID,0,VALID,100,VALID,0.0679233,VALID,20.0789,VALID,77,VALID,0.334223,
2007-06-17, 03:21:00,VALID,913.644,VALID,0,VALID,100,VALID,0.0849042,VALID,20.0752,VALID,74,VALID,0.350781,
2007-06-17, 03:22:00,VALID,913.638,VALID,0,VALID,100,VALID,0.0849042,VALID,20.0657,VALID,50,VALID,0.290737,
2007-06-17, 03:23:00,VALID,913.633,VALID,0,VALID,100,VALID,0.0849042,VALID,20.0719,VALID,48,VALID,0.0212573,
2007-06-17, 03:24:00,VALID,913.64,VALID,0,VALID,100,VALID,0.0339617,VALID,20.0817,VALID,29,VALID,0.440625,
2007-06-17, 03:25:00,VALID,913.643,VALID,0,VALID,100,VALID,0.0509425,VALID,20.069,VALID,21,VALID,0.287791,
2007-06-17, 03:26:00,VALID,913.628,VALID,0,VALID,100,VALID,0.0339617,VALID,20.0819,VALID,23,VALID,0.654474,
2007-06-17, 03:27:00,VALID,913.632,VALID,0,VALID,100,VALID,0.0679233,VALID,20.0819,VALID,27,VALID,0.653088,
2007-06-17, 03:28:00,VALID,913.626,VALID,0,VALID,100,VALID,0.0509425,VALID,20.1114,VALID,31,VALID,0.50465,
2007-06-17, 03:29:00,VALID,913.617,VALID,0,VALID,100,VALID,0.0679233,VALID,20.1374,VALID,32,VALID,0.300114,
2007-06-17, 03:30:00,VALID,913.608,VALID,0,VALID,100,VALID,0.0509425,VALID,20.1471,VALID,32,VALID,0.451219,
2007-06-17, 03:31:00,VALID,913.604,VALID,0,VALID,100,VALID,0.0169808,VALID,20.1371,VALID,32,VALID,0.0638889,
2007-06-17, 03:32:00,VALID,913.601,VALID,0,VALID,100,VALID,0.0169808,VALID,20.1276,VALID,32,VALID,0.0215774,
2007-06-17, 03:33:00,VALID,913.598,VALID,0,VALID,100,VALID,0.0849042,VALID,20.1109,VALID,32,VALID,0,
2007-06-17, 03:34:00,VALID,913.581,VALID,0,VALID,100,VALID,0.0339617,VALID,20.0984,VALID,32,VALID,0,
2007-06-17, 03:35:00,VALID,913.57,VALID,0.2,VALID,100,VALID,0.0169808,VALID,20.0822,VALID,32,VALID,0,
2007-06-17, 03:36:00,VALID,913.562,VALID,0,VALID,100,VALID,0.0849042,VALID,20.0782,VALID,32,VALID,0,
2007-06-17, 03:37:00,VALID,913.55,VALID,0,VALID,100,VALID,0.0169808,VALID,20.0852,VALID,32,VALID,0,
2007-06-17, 03:38:00,VALID,913.545,VALID,0,VALID,100,VALID,0.0339617,VALID,20.0884,VALID,32,VALID,0,
2007-06-17, 03:39:00,VALID,913.534,VALID,0,VALID,100,VALID,0.0509425,VALID,20.1014,VALID,32,VALID,0,
2007-06-17, 03:40:00,VALID,913.538,VALID,0,VALID,100,VALID,0.0339617,VALID,20.1081,VALID,32,VALID,0,
2007-06-17, 03:41:00,VALID,913.524,VALID,0,VALID,100,VALID,0.0849042,VALID,20.1011,VALID,32,VALID,0,
2007-06-17, 03:42:00,VALID,913.528,VALID,0,VALID,100,VALID,0.0509425,VALID,20.1046,VALID,32,VALID,0,